Date,TemperatureHighF,TemperatureAvgF,TemperatureLowF,DewpointHighF,DewpointAvgF,DewpointLowF,HumidityHigh,HumidityAvg,HumidityLow,PressureMaxIn,PressureMinIn,WindSpeedMaxMPH,WindSpeedAvgMPH,GustSpeedMaxMPH,PrecipitationSumIn
2013-1-1,23.5,9.9,-0.5,22.0,7.6,-3.0,95,90,87,29.85,29.64,17,4,21,0.00
2013-1-2,3.0,-3.0,-10.7,0.0,-6.1,-14.0,88,86,84,30.20,29.84,13,5,20,0.00
2013-1-3,8.2,-3.3,-14.4,6.0,-6.4,-18.0,90,86,83,30.24,29.98,6,1,11,0.00
2013-1-4,24.4,18.8,8.5,23.0,17.2,6.0,95,93,89,29.98,29.72,15,2,15,0.00
2013-1-5,24.0,14.7,6.3,23.0,12.7,4.0,95,91,88,30.23,29.71,22,5,27,0.00
2013-1-6,24.1,19.6,9.8,23.0,17.9,8.0,95,93,90,30.20,29.92,6,1,10,0.00
2013-1-7,24.0,12.4,2.6,23.0,10.3,0.0,95,91,88,30.36,29.95,9,3,12,0.00
2013-1-8,28.0,24.0,17.0,26.0,21.9,14.0,94,92,87,30.37,30.20,8,3,13,0.00
2013-1-9,32.4,28.1,21.3,30.0,26.2,20.0,96,92,87,30.39,29.88,14,3,21,0.01
2013-1-10,29.9,26.3,15.3,29.0,24.2,13.0,96,92,88,30.54,29.90,18,7,29,0.00
2013-1-11,30.8,21.3,8.5,27.0,17.4,6.0,93,85,69,30.54,30.18,12,3,18,0.00
2013-1-12,41.6,35.7,27.9,39.0,34.4,26.0,97,95,90,30.19,30.07,11,4,13,0.40
2013-1-13,54.9,44.4,36.2,45.0,40.7,35.0,97,88,59,30.12,29.88,10,3,17,0.00
2013-1-14,51.2,37.3,25.6,49.0,34.7,19.0,97,90,76,30.19,29.76,14,5,24,0.02
2013-1-15,25.7,21.9,14.8,21.0,17.9,12.0,92,84,74,30.30,30.19,10,3,16,0.00
2013-1-16,26.7,22.4,18.6,25.0,19.6,15.0,95,89,83,30.25,29.75,7,2,10,0.00
2013-1-17,25.9,13.6,-3.2,24.0,10.3,-8.0,94,86,76,30.11,29.73,13,3,23,0.00
2013-1-18,7.0,-1.0,-10.9,-1.0,-8.8,-15.0,85,71,58,30.39,30.09,10,2,24,0.00
2013-1-19,32.5,20.7,7.8,25.0,16.3,1.0,91,83,71,30.32,29.81,10,2,16,0.00
2013-1-20,37.1,25.0,2.9,31.0,18.9,-1.0,91,78,58,29.80,29.40,18,6,33,0.05
2013-1-21,9.6,3.5,-3.7,1.0,-3.6,-8.0,87,73,53,30.00,29.80,12,3,21,0.00
2013-1-22,7.6,1.4,-9.1,4.0,-2.9,-13.0,88,82,71,30.00,29.80,9,3,21,0.00
2013-1-23,-9.4,-13.9,-17.4,-14.0,-19.1,-22.0,82,77,69,30.16,29.99,11,4,16,0.00
2013-1-24,-2.4,-6.6,-9.0,-12.0,-13.1,-16.0,82,74,59,30.32,30.09,22,8,29,0.00
2013-1-25,3.5,-2.6,-8.0,-3.0,-7.1,-12.0,83,81,75,30.34,30.15,11,3,20,0.00
2013-1-26,3.6,-0.0,-7.2,-1.0,-5.7,-11.0,85,78,61,30.26,30.11,15,4,21,0.00
2013-1-27,6.2,1.2,-4.3,0.0,-4.3,-8.0,86,78,66,30.54,30.25,12,5,22,0.00
2013-1-28,21.3,9.8,-4.3,14.0,2.8,-9.0,89,74,37,30.52,30.10,10,2,16,0.00
2013-1-29,31.6,21.4,5.8,27.0,17.2,3.0,92,84,75,30.25,30.06,18,3,19,0.07
2013-1-30,53.4,43.8,29.4,50.0,42.2,28.0,97,94,87,30.06,29.33,19,6,33,0.36
2013-1-31,50.3,33.4,10.9,50.0,29.2,8.0,97,85,61,29.34,28.75,22,5,32,0.68
2013-2-1,11.2,5.6,1.0,8.0,1.6,-3.0,88,83,75,30.06,29.34,12,5,22,0.00
2013-2-2,13.3,6.6,-3.1,9.0,1.9,-7.0,88,81,68,30.17,30.06,9,2,16,0.00
2013-2-3,17.9,8.8,-1.8,8.0,3.0,-5.0,89,78,49,30.07,29.74,15,2,17,0.00
2013-2-4,12.5,7.4,-2.0,9.0,2.0,-9.0,90,79,56,29.86,29.66,15,5,34,0.00
2013-2-5,9.9,2.2,-7.9,-2.0,-7.4,-12.0,83,66,46,30.04,29.87,7,2,16,0.00
2013-2-6,20.7,11.3,-0.3,17.0,4.7,-7.0,90,75,52,30.28,29.94,14,4,27,0.00
2013-2-7,5.0,-2.1,-9.9,-7.0,-12.6,-16.0,82,62,41,30.59,30.29,7,3,13,0.00
2013-2-8,12.0,7.8,3.8,9.0,3.2,-11.0,87,82,49,30.55,30.03,26,12,38,0.00
2013-2-9,8.5,4.7,1.5,6.0,1.5,-2.0,88,86,84,30.31,29.96,19,10,31,0.00
2013-2-10,18.2,5.5,-9.9,12.0,0.7,-14.0,86,81,64,30.50,30.31,6,1,12,0.00
2013-2-11,33.9,25.3,7.3,33.0,18.2,2.0,96,76,47,30.38,29.57,12,3,17,0.00
2013-2-12,32.8,28.4,25.6,32.0,26.7,24.0,96,93,89,29.75,29.52,17,4,24,0.00
2013-2-13,27.8,24.5,22.3,24.0,22.4,20.0,94,91,85,29.80,29.73,14,3,22,0.00
2013-2-14,26.2,23.4,20.3,21.0,19.5,17.0,94,85,73,29.97,29.74,10,2,13,0.00
2013-2-15,36.8,28.8,21.8,29.0,23.4,18.0,93,80,63,29.96,29.86,10,2,15,0.05
2013-2-16,26.5,19.3,10.0,19.0,13.0,5.0,90,77,65,29.94,29.87,9,4,13,0.00
2013-2-17,9.8,5.9,3.2,5.0,2.3,0.0,89,85,79,29.86,29.52,25,9,31,0.00
2013-2-18,11.0,4.5,-2.0,5.0,-1.4,-5.0,86,77,62,30.18,29.68,20,8,27,0.00
2013-2-19,35.0,22.3,3.6,28.0,7.7,-4.0,94,57,26,30.21,29.62,23,7,31,0.01
2013-2-20,30.0,20.9,14.5,29.0,18.8,12.0,95,91,89,29.64,29.50,14,5,24,0.00
2013-2-21,16.6,9.0,3.1,15.0,6.4,0.0,92,88,86,30.34,29.64,15,4,16,0.00
2013-2-22,27.8,21.5,15.2,25.0,19.3,13.0,93,91,86,30.48,30.30,8,2,13,0.03
2013-2-23,28.0,24.8,20.4,26.0,22.5,18.0,94,91,87,30.31,29.95,19,8,25,0.00
2013-2-24,30.0,26.9,24.5,27.0,25.1,23.0,95,92,87,29.94,29.79,17,6,24,0.00
2013-2-25,30.0,26.2,21.9,26.0,23.6,21.0,95,90,82,30.25,29.90,7,2,9,0.01
2013-2-26,33.5,28.3,19.2,25.0,23.5,17.0,94,82,70,30.35,30.20,11,3,17,0.01
2013-2-27,29.0,26.6,25.2,26.0,24.0,22.0,94,90,84,30.19,29.67,36,18,45,0.00
2013-2-28,34.6,29.5,25.2,31.0,27.6,23.0,95,92,86,29.68,29.56,24,6,33,0.01
2013-3-1,28.9,26.1,23.1,28.0,24.6,22.0,95,94,90,29.71,29.55,9,4,15,0.00
2013-3-2,25.4,23.6,21.6,24.0,22.2,20.0,95,94,93,29.73,29.68,8,3,14,0.00
2013-3-3,25.7,21.6,18.9,24.0,20.0,17.0,94,93,92,29.70,29.62,6,2,9,0.00
2013-3-4,19.4,17.8,16.7,18.0,15.8,15.0,94,92,88,29.88,29.62,3,0,10,0.00
2013-3-5,32.3,25.1,17.3,30.0,23.4,16.0,96,93,91,30.14,29.88,10,2,18,0.00
2013-3-6,30.9,27.8,23.2,28.0,24.0,19.0,94,85,75,30.24,30.14,22,10,27,0.00
2013-3-7,26.3,23.7,21.6,21.0,19.6,18.0,87,84,79,30.24,30.16,17,8,25,0.00
2013-3-8,38.7,28.3,19.7,23.0,20.2,16.0,90,74,40,30.31,30.14,13,4,17,0.01
2013-3-9,43.5,27.2,8.5,23.0,16.9,6.0,91,69,35,30.40,30.28,11,2,15,0.06
2013-3-10,49.4,38.0,28.6,25.0,21.3,18.0,70,53,29,30.38,30.16,12,4,18,0.00
2013-3-11,52.8,42.5,34.4,29.0,25.2,22.0,74,52,33,30.18,29.98,16,4,21,0.00
2013-3-12,45.1,41.5,34.3,42.0,34.9,17.0,96,80,32,29.99,29.68,18,7,26,0.45
2013-3-13,33.9,30.3,24.4,33.0,27.5,22.0,96,89,77,29.77,29.70,8,3,11,0.03
2013-3-14,25.8,18.8,7.6,23.0,14.7,3.0,91,84,75,29.81,29.66,14,4,17,0.01
2013-3-15,24.9,15.1,5.5,20.0,8.8,2.0,91,78,42,29.82,29.63,10,3,16,0.00
2013-3-16,18.0,13.6,0.5,16.0,8.8,-3.0,91,81,69,29.92,29.70,11,4,16,0.00
2013-3-17,15.1,7.8,-2.5,7.0,-0.5,-6.0,90,71,48,30.35,29.91,16,4,24,0.00
2013-3-18,24.7,15.3,4.4,4.0,-2.0,-5.0,66,48,32,30.46,30.25,13,4,19,0.00
2013-3-19,22.2,19.0,16.7,18.0,14.7,2.0,91,84,41,30.24,29.76,35,18,45,0.00
2013-3-20,23.7,20.1,15.9,20.0,17.5,14.0,92,89,83,29.75,29.63,13,3,20,0.00
2013-3-21,28.6,20.6,8.9,18.0,13.3,6.0,90,74,52,29.72,29.64,9,2,15,0.11
2013-3-22,25.1,16.6,5.3,19.0,12.4,3.0,92,83,69,29.71,29.66,11,3,22,0.00
2013-3-23,25.7,22.7,18.2,23.0,20.3,16.0,93,90,85,29.75,29.55,16,7,25,0.00
2013-3-24,29.8,26.1,17.8,26.0,23.6,16.0,94,90,82,29.84,29.73,10,4,16,0.01
2013-3-25,35.8,26.8,9.5,26.0,20.4,7.0,95,78,58,29.82,29.64,15,4,17,0.04
2013-3-26,33.5,28.8,19.3,25.0,22.6,17.0,93,78,68,29.78,29.64,12,5,18,0.00
2013-3-27,33.2,29.7,25.2,30.0,26.2,22.0,96,87,75,29.92,29.75,13,4,16,0.01
2013-3-28,37.9,32.8,29.1,33.0,30.2,28.0,96,90,78,30.04,29.90,9,3,14,0.06
2013-3-29,39.8,35.0,31.8,33.0,30.6,27.0,96,84,65,30.04,29.98,11,4,18,0.03
2013-3-30,39.1,32.3,21.5,29.0,20.4,13.0,92,65,36,30.10,30.02,11,3,17,0.00
2013-3-31,47.1,33.8,15.4,27.0,18.1,13.0,90,57,32,30.10,29.78,15,4,23,0.00
2013-4-1,41.4,32.3,19.3,36.0,29.3,16.0,95,88,67,29.77,29.47,15,4,20,0.12
2013-4-2,21.8,17.4,13.6,17.0,13.1,9.0,90,83,71,29.80,29.65,13,6,25,0.00
2013-4-3,24.4,20.0,15.1,18.0,13.9,9.0,89,77,67,30.10,29.79,18,8,27,0.00
2013-4-4,42.0,30.8,18.8,18.0,12.3,7.0,74,49,28,30.22,29.93,13,4,20,0.04
2013-4-5,40.6,32.4,21.8,27.0,21.3,16.0,91,66,43,29.92,29.73,16,4,20,0.00
2013-4-6,25.5,18.7,12.1,15.0,6.3,2.0,86,60,40,30.35,29.84,21,8,26,0.00
2013-4-7,45.1,36.4,19.1,32.0,18.0,6.0,64,48,38,30.34,29.85,19,6,28,0.01
2013-4-8,43.9,36.5,32.0,33.0,30.0,27.0,94,78,62,30.11,29.87,12,4,17,0.00
2013-4-9,39.3,34.9,32.9,38.0,33.0,28.0,97,93,68,30.05,29.86,17,5,32,0.65
2013-4-10,42.3,37.5,33.7,38.0,34.8,30.0,98,90,73,29.99,29.92,9,2,12,0.04
2013-4-11,34.6,29.7,24.5,29.0,18.8,13.0,93,65,46,30.21,29.89,13,5,18,0.00
2013-4-12,26.7,25.5,23.3,25.0,18.2,12.0,93,75,56,30.23,29.87,30,14,40,0.00
2013-4-13,38.8,32.1,26.3,34.0,29.7,24.0,96,91,80,29.91,29.81,19,3,28,0.10
2013-4-14,37.3,33.3,30.3,34.0,31.0,29.0,95,91,77,30.20,29.88,7,2,15,0.26
2013-4-15,49.1,39.1,23.4,31.0,27.2,22.0,96,66,42,30.38,30.21,11,3,16,0.01
2013-4-16,51.0,45.7,35.3,48.0,39.4,31.0,96,79,62,30.30,29.90,17,5,24,0.32
2013-4-17,44.4,38.1,29.4,42.0,27.8,18.0,92,68,44,30.37,29.99,13,6,21,0.00
2013-4-18,46.7,37.4,27.8,38.0,24.8,16.0,83,61,43,30.41,30.00,20,7,29,0.04
2013-4-19,66.6,57.3,46.3,55.0,49.2,38.0,92,75,51,29.99,29.47,14,6,30,0.07
2013-4-20,44.3,37.1,26.7,43.0,28.5,21.0,95,73,46,30.16,29.58,17,5,26,0.34
2013-4-21,35.5,27.9,21.7,23.0,16.8,11.0,89,66,37,30.74,30.18,11,5,22,0.02
2013-4-22,45.3,34.3,18.7,19.0,14.8,11.0,88,48,27,30.80,30.60,16,7,24,0.00
2013-4-23,41.8,34.8,25.7,34.0,26.8,18.0,95,73,50,30.61,30.19,22,9,27,0.00
2013-4-24,66.1,49.8,35.5,49.0,39.5,26.0,97,73,23,30.18,29.66,20,5,30,0.00
2013-4-25,57.1,40.7,28.5,47.0,30.5,21.0,91,69,42,30.32,29.63,14,4,26,0.04
2013-4-26,51.2,38.5,24.4,32.0,25.4,22.0,91,63,36,30.46,30.32,16,3,17,0.00
2013-4-27,53.1,40.2,27.9,33.0,28.0,24.0,94,66,35,30.45,30.32,8,1,12,0.00
2013-4-28,61.3,47.8,29.0,33.0,29.2,26.0,92,54,27,30.36,30.19,9,3,17,0.00
2013-4-29,64.1,53.0,42.4,40.0,34.6,31.0,73,52,32,30.21,30.12,11,4,17,0.00
2013-4-30,66.5,54.0,37.5,44.0,39.0,33.0,88,59,36,30.31,30.20,11,2,14,0.00
2013-5-1,69.3,56.7,35.7,40.0,35.0,31.0,84,47,32,30.43,30.31,6,1,11,0.00
2013-5-2,68.2,54.5,38.1,39.0,36.4,32.0,83,53,33,30.42,30.37,20,6,24,0.00
2013-5-3,62.7,51.1,38.6,40.0,35.8,30.0,78,57,41,30.50,30.37,17,5,24,0.00
2013-5-4,65.8,53.8,35.2,42.0,34.1,29.0,94,53,26,30.37,30.22,11,4,18,0.00
2013-5-5,70.7,57.1,38.0,38.0,34.4,32.0,84,47,25,30.25,30.12,14,3,18,0.00
2013-5-6,73.7,60.1,40.2,41.0,33.5,25.0,89,42,23,30.18,30.03,9,2,14,0.00
2013-5-7,76.1,63.7,51.3,41.0,32.2,26.0,64,33,18,30.10,30.01,10,3,19,0.00
2013-5-8,74.0,62.4,46.7,53.0,44.8,37.0,87,56,28,30.13,30.02,19,6,23,0.00
2013-5-9,65.5,56.7,52.6,55.0,53.1,51.0,96,88,65,30.02,29.84,15,5,20,0.50
2013-5-10,66.1,57.4,52.4,55.0,51.7,48.0,97,83,55,29.95,29.84,13,3,20,0.00
2013-5-11,60.2,55.9,48.5,58.0,53.7,48.0,96,92,86,29.83,29.59,13,4,18,0.60
2013-5-12,55.9,46.7,36.8,49.0,41.6,26.0,96,83,63,29.68,29.54,11,2,17,0.02
2013-5-13,42.3,37.0,32.3,31.0,27.4,25.0,85,69,56,30.03,29.66,10,2,21,0.01
2013-5-14,45.4,37.8,29.6,31.0,25.7,23.0,89,64,42,30.06,30.00,17,4,19,0.00
2013-5-15,58.5,45.0,32.9,46.0,29.9,19.0,94,60,25,30.02,29.61,18,4,24,0.19
2013-5-16,62.8,50.7,43.6,47.0,41.9,36.0,96,75,37,29.81,29.56,13,4,25,0.00
2013-5-17,52.0,44.1,39.0,39.0,37.5,35.0,96,80,54,30.22,29.81,9,4,17,0.03
2013-5-18,59.8,49.9,36.9,42.0,37.5,32.0,96,66,36,30.31,30.23,10,2,14,0.00
2013-5-19,66.1,53.7,41.1,48.0,40.1,31.0,94,65,29,30.29,30.09,17,3,21,0.13
2013-5-20,63.9,54.9,49.2,56.0,51.8,48.0,97,90,70,30.09,29.95,14,2,18,0.60
2013-5-21,53.3,50.6,45.5,52.0,49.3,45.0,97,95,90,30.05,29.83,26,9,33,0.72
2013-5-22,59.2,51.0,45.3,56.0,49.7,44.0,97,95,88,29.91,29.82,26,5,28,0.43
2013-5-23,71.2,61.8,52.3,63.0,58.1,52.0,98,88,72,29.83,29.69,9,3,27,1.66
2013-5-24,56.5,47.1,40.3,56.0,46.3,39.0,98,97,96,29.94,29.63,21,4,23,0.72
2013-5-25,40.5,36.4,32.2,40.0,35.7,32.0,98,97,95,29.93,29.80,21,9,26,0.61
2013-5-26,40.0,35.9,32.7,39.0,35.2,32.0,98,97,94,30.04,29.77,15,5,20,0.14
2013-5-27,54.6,44.8,33.0,41.0,34.9,31.0,96,72,44,30.18,30.04,20,3,22,0.00
2013-5-28,66.9,55.1,39.0,41.0,36.2,29.0,87,53,27,30.23,30.13,7,2,11,0.00
2013-5-29,58.9,52.9,49.2,58.0,47.6,37.0,97,83,59,30.14,29.94,18,6,25,0.09
2013-5-30,74.1,64.3,57.9,60.0,58.3,56.0,98,82,56,30.05,29.95,8,2,20,0.06
2013-5-31,82.3,72.6,61.6,65.0,61.5,59.0,90,70,50,30.04,29.87,9,1,15,0.00
2013-6-1,82.3,73.6,64.6,67.0,61.2,57.0,89,66,48,29.89,29.75,6,1,14,0.17
2013-6-2,81.8,70.2,60.5,68.0,63.3,59.0,96,81,55,29.80,29.58,14,2,17,0.44
2013-6-3,66.1,57.6,46.8,58.0,53.3,44.0,95,86,71,29.77,29.69,12,1,14,0.00
2013-6-4,54.0,47.0,41.9,44.0,40.5,38.0,90,79,57,30.08,29.77,12,2,19,0.00
2013-6-5,60.1,50.5,38.5,41.0,37.6,34.0,89,64,37,30.19,30.08,7,2,13,0.00
2013-6-6,55.7,49.8,42.1,47.0,43.7,38.0,92,80,61,30.21,30.13,11,3,17,0.10
2013-6-7,48.9,46.9,44.9,47.0,45.0,43.0,96,92,84,30.13,29.92,23,10,30,0.72
2013-6-8,57.3,52.3,46.9,55.0,51.0,46.0,97,95,88,29.98,29.76,23,4,26,0.56
2013-6-9,63.5,55.8,50.6,56.0,52.8,50.0,98,90,73,30.18,29.98,9,1,16,0.09
2013-6-10,70.7,58.7,44.9,53.0,47.2,42.0,97,69,41,30.20,29.97,12,2,12,0.00
2013-6-11,56.9,51.7,49.8,52.0,49.6,48.0,95,92,76,29.97,29.60,22,8,31,0.76
2013-6-12,53.3,50.6,48.6,52.0,49.7,48.0,97,96,94,29.84,29.59,15,4,23,0.12
2013-6-13,66.6,56.1,46.6,55.0,49.6,45.0,98,81,48,29.83,29.69,8,1,12,0.01
2013-6-14,67.6,58.3,48.7,51.0,47.6,39.0,97,70,43,29.78,29.68,9,2,18,0.00
2013-6-15,63.6,56.4,42.7,43.0,40.3,37.0,89,56,42,29.88,29.79,8,2,18,0.00
2013-6-16,68.4,57.5,51.9,55.0,48.6,42.0,97,74,43,29.87,29.67,9,1,14,0.48
2013-6-17,66.7,58.2,51.4,59.0,53.1,48.0,97,84,61,29.87,29.71,5,1,17,0.03
2013-6-18,60.5,52.8,45.7,47.0,44.4,42.0,95,75,51,29.97,29.86,7,1,11,0.00
2013-6-19,60.8,52.0,42.6,45.0,42.4,38.0,96,72,46,30.18,29.95,10,2,16,0.00
2013-6-20,67.7,57.4,43.2,49.0,43.3,38.0,96,64,35,30.25,30.18,7,1,11,0.00
2013-6-21,72.3,60.9,49.2,53.0,49.4,47.0,93,69,42,30.21,30.19,10,1,15,0.00
2013-6-22,66.5,61.0,55.6,61.0,56.9,51.0,95,86,74,30.20,30.10,5,0,8,0.07
2013-6-23,74.5,66.5,59.7,68.0,63.6,58.0,97,90,76,30.11,29.93,8,1,11,0.18
2013-6-24,78.9,69.1,62.0,68.0,64.5,59.0,97,86,63,29.94,29.81,9,2,15,0.08
2013-6-25,79.3,68.1,62.8,70.0,63.2,58.0,95,85,65,29.85,29.70,7,2,12,0.38
2013-6-26,70.4,65.7,61.3,66.0,63.2,60.0,97,91,81,29.78,29.70,6,1,8,0.01
2013-6-27,75.9,66.7,60.9,66.0,62.8,60.0,96,88,68,29.77,29.71,10,2,23,0.17
2013-6-28,60.8,57.9,54.6,59.0,56.8,53.0,98,96,93,29.74,29.47,22,12,33,0.40
2013-6-29,76.1,64.7,59.1,66.0,61.7,59.0,98,90,62,29.64,29.49,16,1,17,0.30
2013-6-30,73.2,65.9,60.4,63.0,61.1,59.0,97,85,65,29.90,29.64,5,0,11,0.00
2013-7-1,68.5,64.1,60.3,62.0,60.6,59.0,96,88,76,30.08,29.90,10,2,14,0.17
2013-7-2,61.1,57.4,55.1,60.0,56.4,54.0,98,96,95,30.17,30.05,23,9,27,0.93
2013-7-3,78.0,67.5,57.1,70.0,65.5,57.0,98,93,75,30.17,30.10,5,1,13,0.21
2013-7-4,79.9,70.9,64.4,71.0,67.4,64.0,98,89,69,30.15,30.03,5,0,10,0.12
2013-7-5,79.8,71.7,64.9,70.0,66.7,63.0,97,85,66,30.08,29.98,7,1,15,0.02
2013-7-6,76.7,69.3,65.8,67.0,64.3,59.0,95,85,57,30.00,29.94,6,1,13,0.00
2013-7-7,77.1,69.3,62.7,66.0,62.0,58.0,97,78,58,29.98,29.89,6,1,13,0.07
2013-7-8,72.9,65.3,62.3,66.0,63.5,62.0,98,93,76,30.03,29.89,5,1,9,0.06
2013-7-9,74.2,66.2,62.8,67.0,64.0,62.0,98,93,73,30.06,29.99,11,3,16,0.29
2013-7-10,70.0,66.3,62.2,66.0,64.0,61.0,97,92,85,30.00,29.72,14,4,17,0.00
2013-7-11,71.0,64.6,56.2,67.0,60.5,54.0,98,87,61,29.99,29.71,11,1,16,0.39
2013-7-12,73.8,62.8,51.5,58.0,53.6,50.0,97,74,44,30.20,29.99,3,0,9,0.00
2013-7-13,79.3,69.1,58.3,63.0,59.3,55.0,92,73,49,30.27,30.21,4,1,12,0.00
2013-7-14,79.1,70.5,63.1,66.0,63.7,61.0,96,80,60,30.27,30.19,7,1,11,0.00
2013-7-15,80.9,72.3,64.5,68.0,65.2,63.0,96,79,58,30.19,30.09,5,0,10,0.00
2013-7-16,79.0,71.7,63.6,67.0,63.3,59.0,96,76,54,30.16,30.11,8,1,14,0.00
2013-7-17,84.2,72.9,62.7,70.0,65.5,60.0,97,79,55,30.16,29.92,14,1,16,0.57
2013-7-18,78.0,70.4,64.1,69.0,66.0,63.0,98,87,69,29.98,29.89,6,1,10,1.06
2013-7-19,83.9,72.5,65.2,73.0,67.7,64.0,96,86,62,29.89,29.58,10,2,20,0.22
2013-7-20,72.5,66.8,58.1,67.0,62.7,53.0,94,87,74,29.77,29.59,9,1,19,0.10
2013-7-21,67.0,59.3,50.1,55.0,50.7,47.0,92,75,57,30.02,29.78,8,1,12,0.00
2013-7-22,72.6,62.2,48.4,63.0,54.3,43.0,93,76,54,30.04,29.87,7,2,14,0.00
2013-7-23,66.4,63.0,60.2,65.0,61.5,58.0,98,94,91,29.86,29.53,8,2,13,0.27
2013-7-24,63.4,57.3,48.8,62.0,55.2,46.0,98,93,82,30.00,29.54,8,1,12,0.12
2013-7-25,66.5,56.5,46.1,56.0,49.5,43.0,90,78,62,30.14,30.00,7,1,11,0.00
2013-7-26,65.9,60.5,55.0,59.0,55.9,52.0,93,85,74,30.12,29.96,11,3,15,0.00
2013-7-27,75.6,63.8,56.1,60.0,56.7,53.0,96,79,46,30.02,29.96,6,0,13,0.00
2013-7-28,74.9,66.9,59.1,63.0,59.5,55.0,95,78,54,29.99,29.92,17,6,22,0.01
2013-7-29,75.1,65.5,58.1,63.0,60.2,56.0,97,84,62,30.03,29.92,8,1,16,0.60
2013-7-30,67.5,60.2,53.6,56.0,53.9,50.0,95,80,57,30.07,30.02,5,1,12,0.03
2013-7-31,71.3,62.4,53.0,58.0,54.7,52.0,96,77,57,30.10,30.01,6,0,12,0.00
2013-8-1,74.0,64.3,55.3,60.0,56.1,52.0,95,76,54,30.02,29.78,18,5,21,0.04
2013-8-2,69.8,62.8,56.1,61.0,57.2,53.0,97,83,60,29.80,29.71,6,1,15,0.05
2013-8-3,68.3,58.9,54.4,58.0,54.0,51.0,94,84,65,29.80,29.70,7,1,14,0.14
2013-8-4,64.3,56.0,50.8,57.0,52.8,49.0,96,89,68,29.86,29.75,8,1,13,0.15
2013-8-5,59.4,52.2,46.1,50.0,46.2,39.0,96,81,49,30.04,29.85,7,2,19,0.01
2013-8-6,71.3,59.9,49.2,54.0,49.2,46.0,89,70,46,30.13,30.04,8,1,10,0.00
2013-8-7,71.5,63.4,53.6,57.0,53.5,49.0,88,71,53,30.14,30.02,11,4,17,0.01
2013-8-8,74.1,65.6,58.2,66.0,61.2,54.0,95,86,73,30.03,29.94,9,2,16,0.04
2013-8-9,69.2,65.8,62.5,67.0,64.6,61.0,97,96,93,29.97,29.72,7,1,12,0.79
2013-8-10,64.8,59.8,52.9,64.0,52.9,48.0,97,79,62,29.96,29.73,14,2,18,0.00
2013-8-11,67.3,58.8,49.8,54.0,49.9,47.0,91,73,56,30.04,29.96,7,1,13,0.00
2013-8-12,69.5,61.8,54.6,56.0,52.1,50.0,92,71,50,29.99,29.89,4,1,12,0.00
2013-8-13,66.1,60.7,54.1,59.0,56.2,52.0,94,85,73,29.89,29.65,7,1,14,0.00
2013-8-14,61.8,55.9,51.3,58.0,52.1,47.0,96,87,72,29.88,29.62,16,1,17,0.05
2013-8-15,66.4,57.8,48.3,52.0,48.9,46.0,91,73,54,30.06,29.88,10,2,16,0.00
2013-8-16,68.6,60.3,51.6,55.0,51.2,47.0,86,73,58,30.11,30.05,7,1,10,0.00
2013-8-18,71.6,65.0,56.2,57.0,54.3,52.0,87,69,56,30.16,30.05,3,0,13,0.00
2013-8-19,73.7,64.9,54.5,60.0,57.0,52.0,91,76,61,30.05,29.91,10,1,15,0.00
2013-8-20,76.0,67.3,60.0,61.0,57.9,56.0,88,73,52,30.05,29.96,7,1,14,0.00
2013-8-21,79.5,70.1,61.5,64.0,59.9,58.0,89,72,51,30.09,29.95,6,1,14,0.00
2013-8-22,78.8,68.8,61.6,67.0,62.0,59.0,95,80,60,29.96,29.75,5,1,17,0.35
2013-8-23,61.8,56.6,47.3,59.0,50.5,44.0,97,81,55,30.17,29.77,11,2,19,0.00
2013-8-24,67.6,56.1,45.5,51.0,47.0,43.0,97,75,41,30.34,30.18,5,0,13,0.00
2013-8-25,69.4,59.3,49.0,55.0,50.5,47.0,98,75,50,30.35,30.11,5,0,10,0.01
2013-8-26,62.9,60.0,55.8,62.0,58.5,52.0,98,95,73,30.11,29.88,5,1,10,0.16
2013-8-27,75.5,66.5,61.9,65.0,62.3,61.0,98,87,64,29.91,29.84,3,0,7,0.00
2013-8-28,77.9,66.4,61.3,68.0,62.9,60.0,98,89,62,29.95,29.85,12,2,21,0.26
2013-8-29,65.8,61.2,58.3,61.0,58.8,57.0,96,91,82,30.05,29.95,13,4,22,0.00
2013-8-30,73.3,63.9,57.1,66.0,60.7,56.0,98,90,70,29.98,29.77,6,1,20,0.32
2013-8-31,73.7,66.5,59.9,66.0,63.3,59.0,98,90,73,29.78,29.73,5,0,8,0.06
2013-9-1,73.9,67.4,62.2,64.0,61.9,59.0,97,83,62,29.86,29.74,14,2,18,0.00
2013-9-2,65.5,63.2,60.7,64.0,61.5,60.0,98,94,91,29.85,29.69,19,8,28,0.52
2013-9-3,67.2,61.1,57.1,62.0,58.9,56.0,98,92,77,29.75,29.67,5,0,11,0.06
2013-9-4,67.4,57.6,53.4,57.0,53.9,51.0,97,88,62,29.88,29.74,9,2,14,0.03
2013-9-5,54.2,48.7,41.4,51.0,41.1,36.0,93,76,54,30.13,29.85,6,1,11,0.00
2013-9-6,61.0,50.1,37.7,42.0,38.6,35.0,90,67,44,30.22,30.05,7,1,12,0.00
2013-9-7,67.2,56.4,48.7,52.0,46.4,41.0,91,70,49,30.04,29.78,11,1,14,0.10
2013-9-8,54.4,48.2,40.3,52.0,43.5,36.0,96,84,61,30.05,29.71,13,2,18,0.23
2013-9-9,60.8,50.0,37.2,46.0,40.3,35.0,92,71,49,30.19,30.05,14,2,15,0.00
2013-9-10,64.8,58.8,51.7,63.0,55.0,44.0,96,87,72,30.09,30.00,4,2,10,0.03
2013-9-11,83.6,72.3,63.6,72.0,66.4,61.0,98,83,55,30.01,29.85,8,2,21,1.04
2013-9-12,71.0,65.4,61.6,67.0,63.5,61.0,97,93,83,29.90,29.59,7,1,12,0.51
2013-9-13,61.6,54.5,49.2,61.0,53.8,49.0,98,97,93,29.77,29.58,8,2,13,0.96
2013-9-14,49.1,47.2,45.0,48.0,46.6,44.0,98,97,95,30.05,29.76,4,1,13,0.44
2013-9-15,59.0,51.1,42.4,51.0,46.4,41.0,97,84,69,30.11,29.99,8,1,13,0.00
2013-9-16,52.3,43.6,35.2,49.0,41.4,33.0,97,92,83,30.29,29.96,7,3,20,0.30
2013-9-17,55.1,43.9,34.5,42.0,37.7,33.0,96,80,57,30.46,30.29,8,1,12,0.00
2013-9-18,64.9,52.5,41.8,46.0,42.0,38.0,91,69,44,30.32,30.13,7,1,11,0.00
2013-9-19,70.3,57.0,45.8,50.0,46.7,43.0,93,71,44,30.14,30.03,4,0,9,0.00
2013-9-20,74.3,60.7,48.8,55.0,51.2,47.0,97,74,39,30.08,29.93,8,2,15,0.00
2013-9-21,71.7,61.9,54.2,57.0,48.0,38.0,91,64,31,29.92,29.59,20,5,23,0.01
2013-9-22,60.1,51.7,41.2,58.0,50.0,40.0,97,94,86,29.77,29.48,10,3,21,0.95
2013-9-23,41.5,39.2,36.2,40.0,37.6,35.0,96,94,91,29.99,29.77,12,5,18,0.00
2013-9-24,43.4,40.5,38.1,40.0,37.7,36.0,95,90,87,29.98,29.89,12,4,23,0.00
2013-9-25,47.7,43.5,37.7,44.0,41.2,37.0,97,91,85,30.03,29.91,6,2,12,0.00
2013-9-26,50.8,46.7,42.2,48.0,44.4,41.0,96,91,86,30.18,30.03,11,3,15,0.00
2013-9-27,61.9,51.9,46.3,51.0,47.2,45.0,96,85,63,30.30,30.18,9,2,11,0.00
2013-9-28,65.4,53.6,43.5,53.0,48.1,43.0,98,83,58,30.37,30.25,6,1,11,0.01
2013-9-29,66.4,55.4,45.2,54.0,47.7,44.0,97,78,46,30.25,30.07,8,1,11,0.00
2013-9-30,66.0,55.1,44.5,53.0,47.0,43.0,97,77,51,30.09,29.97,5,0,7,0.00
2013-10-1,65.5,54.7,44.5,54.0,49.0,44.0,98,82,56,29.98,29.86,12,2,16,0.00
2013-10-2,67.3,58.4,53.0,57.0,50.1,41.0,97,76,53,29.91,29.78,12,2,29,0.01
2013-10-3,60.6,54.5,47.7,45.0,41.5,40.0,77,63,47,30.06,29.91,12,3,18,0.00
2013-10-4,58.9,52.5,47.2,45.0,42.8,38.0,80,70,49,30.11,30.04,6,2,10,0.00
2013-10-5,57.3,50.1,43.6,44.0,38.4,28.0,88,67,35,30.17,30.08,7,2,10,0.01
2013-10-6,51.5,45.4,41.3,45.0,37.9,34.0,96,76,59,30.20,30.09,23,6,25,0.22
2013-10-7,61.5,53.4,46.1,59.0,51.5,45.0,96,93,87,30.08,29.66,18,8,30,0.63
2013-10-8,48.7,43.2,37.7,46.0,37.3,34.0,92,80,61,30.41,29.83,12,4,21,0.00
2013-10-9,58.0,45.2,35.3,40.0,36.4,32.0,97,75,40,30.49,30.37,8,1,11,0.00
2013-10-10,64.7,50.8,40.5,46.0,38.7,20.0,91,67,18,30.37,30.21,8,0,8,0.00
2013-10-11,68.8,54.3,40.1,47.0,40.8,34.0,93,65,31,30.20,30.15,8,1,10,0.00
2013-10-12,59.8,53.6,47.5,52.0,48.9,47.0,96,84,69,30.35,30.19,13,6,20,0.00
2013-10-13,50.6,47.2,45.0,49.0,46.2,44.0,98,96,92,30.41,30.34,9,3,14,0.00
2013-10-14,51.7,47.5,41.3,51.0,46.8,41.0,98,97,96,30.34,30.25,8,2,11,0.09
2013-10-15,58.2,51.8,45.1,50.0,48.5,45.0,99,89,72,30.29,30.14,7,2,14,0.01
2013-10-16,58.6,52.4,49.4,50.0,47.7,44.0,93,84,66,30.14,29.82,18,5,20,0.00
2013-10-17,56.4,51.5,43.9,51.0,46.5,42.0,96,83,66,29.82,29.70,9,1,15,0.10
2013-10-18,51.0,47.4,43.6,47.0,44.4,38.0,97,89,78,29.83,29.56,16,4,28,0.40
2013-10-19,55.0,48.0,40.2,42.0,38.9,37.0,89,72,55,29.89,29.67,9,2,17,0.00
2013-10-20,49.2,44.0,37.5,43.0,34.5,27.0,92,71,46,29.93,29.59,17,4,24,0.06
2013-10-21,53.4,44.3,33.9,40.0,35.8,30.0,90,73,60,30.05,29.91,7,2,15,0.00
2013-10-22,49.4,43.4,32.7,44.0,37.8,29.0,95,81,65,29.91,29.64,9,2,18,0.16
2013-10-23,42.2,35.5,30.5,34.0,29.2,27.0,90,78,63,29.73,29.62,6,1,12,0.00
2013-10-24,35.5,31.9,27.6,30.0,27.4,23.0,93,83,72,29.80,29.61,18,3,26,0.00
2013-10-25,33.1,31.5,29.4,30.0,27.2,24.0,93,84,75,30.08,29.81,10,4,19,0.01
2013-10-26,35.3,31.4,25.4,32.0,28.1,23.0,92,88,79,30.08,29.81,12,2,20,0.03
2013-10-27,38.4,34.9,31.7,35.0,30.9,27.0,94,85,81,29.97,29.75,9,2,16,0.06
2013-10-28,34.8,31.2,24.3,33.0,27.3,20.0,94,85,76,30.36,29.97,10,3,22,0.03
2013-10-29,32.5,25.9,19.6,24.0,20.9,18.0,94,81,68,30.46,30.36,8,2,11,0.00
2013-10-30,34.7,29.9,23.5,29.0,22.6,17.0,86,75,57,30.36,30.20,7,1,11,0.01
2013-10-31,52.6,40.7,30.6,52.0,37.9,28.0,97,89,74,30.24,29.68,9,3,20,0.46
2013-11-1,58.3,54.4,47.7,57.0,50.0,41.0,96,86,63,29.67,29.21,13,4,26,0.73
2013-11-2,48.8,41.8,30.0,42.0,38.8,29.0,96,89,76,29.82,29.52,8,4,21,0.04
2013-11-3,29.7,23.7,19.7,29.0,19.4,15.0,96,83,71,30.48,29.82,15,6,17,0.00
2013-11-4,29.2,22.9,15.3,18.0,15.6,12.0,89,74,59,30.71,30.48,12,2,15,0.01
2013-11-5,39.2,32.6,24.5,30.0,20.8,15.0,74,62,46,30.71,30.47,11,3,21,0.00
2013-11-6,50.9,43.3,34.3,42.0,34.7,29.0,85,72,52,30.46,29.87,12,3,20,0.00
2013-11-7,50.6,41.1,28.4,48.0,38.1,25.0,96,89,78,29.86,29.66,12,4,23,0.37
2013-11-8,29.9,27.9,26.3,25.0,24.4,23.0,90,86,80,30.00,29.73,13,5,25,0.00
2013-11-9,29.0,27.2,25.1,26.0,21.8,19.0,92,80,70,30.13,30.00,12,4,24,0.00
2013-11-10,37.5,31.9,26.9,35.0,30.1,25.0,96,93,89,29.99,29.69,10,2,16,0.12
2013-11-11,32.6,29.1,26.1,31.0,27.5,25.0,96,93,89,30.01,29.77,10,3,18,0.00
2013-11-12,32.5,19.4,16.6,31.0,17.5,15.0,94,92,90,30.16,29.80,15,5,24,0.00
2013-11-13,21.4,16.3,12.3,19.0,14.0,10.0,92,90,88,30.26,30.05,10,4,20,0.00
2013-11-14,32.8,27.7,20.4,30.0,24.7,18.0,91,88,85,30.08,30.00,6,1,11,0.00
2013-11-15,42.1,35.1,28.6,28.0,25.4,23.0,91,69,52,30.20,30.07,4,1,14,0.16
2013-11-16,47.7,38.5,31.6,31.0,26.8,24.0,89,65,41,30.31,30.20,6,1,9,0.08
2013-11-17,45.2,41.2,37.0,42.0,33.6,25.0,96,76,57,30.30,29.82,25,8,29,0.04
2013-11-18,50.7,44.1,35.4,50.0,39.9,29.0,98,86,68,29.80,29.40,21,6,34,0.36
2013-11-19,35.0,24.3,21.2,29.0,18.8,15.0,88,79,70,30.27,29.52,17,8,28,0.00
2013-11-20,25.9,20.7,17.0,15.0,12.9,11.0,87,72,54,30.68,30.27,17,5,28,0.00
2013-11-21,43.4,29.7,17.1,19.0,11.6,3.0,91,52,23,30.68,30.36,6,1,10,0.00
2013-11-22,33.8,32.1,30.5,33.0,26.5,16.0,97,81,51,30.35,29.75,7,1,10,0.04
2013-11-23,33.8,22.3,11.7,33.0,19.8,9.0,97,90,81,29.84,29.68,16,5,24,0.02
2013-11-24,11.7,9.3,5.2,9.0,6.5,2.0,90,88,83,30.11,29.71,18,8,28,0.00
2013-11-25,21.8,10.3,2.5,15.0,5.4,-1.0,88,81,69,30.35,30.12,16,4,24,0.00
2013-11-26,30.1,25.5,22.0,24.0,19.7,13.0,93,78,68,30.27,30.06,16,3,20,0.00
2013-11-27,43.6,31.7,25.7,43.0,30.8,24.0,98,96,93,30.05,29.32,28,11,47,0.85
2013-11-28,25.7,12.9,7.5,25.0,10.8,5.0,95,91,89,30.38,29.37,20,5,29,0.00
2013-11-29,12.2,8.4,5.1,10.0,6.0,3.0,90,89,89,30.77,30.38,8,3,11,0.00
2013-11-30,21.1,11.8,0.7,18.0,8.9,-2.0,91,88,85,30.82,30.39,14,3,19,0.00
2013-12-1,30.8,26.3,20.8,28.0,24.0,17.0,95,91,85,30.39,30.08,10,2,20,0.00
2013-12-2,32.9,30.4,27.3,32.0,29.2,26.0,97,95,92,30.07,29.93,14,5,19,0.01
2013-12-3,35.1,31.1,26.7,32.0,29.3,24.0,97,92,81,29.95,29.89,11,3,13,0.03
2013-12-4,28.0,24.9,19.1,25.0,22.6,17.0,95,90,86,30.21,29.93,14,4,17,0.00
2013-12-5,46.2,33.9,19.9,45.0,32.1,18.0,98,93,87,30.21,29.86,11,4,19,0.13
2013-12-6,45.8,31.1,24.4,45.0,29.4,21.0,97,93,85,30.09,29.88,11,3,18,0.17
2013-12-7,24.6,18.5,14.1,22.0,12.7,8.0,90,78,66,30.41,30.07,17,5,30,0.00
2013-12-8,16.8,13.1,9.4,9.0,6.9,5.0,86,76,68,30.57,30.41,11,3,18,0.00
2013-12-9,30.9,20.0,12.8,29.0,16.9,8.0,95,87,75,30.52,29.85,29,10,43,0.00
2013-12-10,28.8,20.3,11.8,27.0,15.4,8.0,94,81,65,29.86,29.72,10,4,24,0.00
2013-12-11,16.9,12.0,7.4,14.0,9.4,4.0,90,89,85,30.11,29.86,9,2,16,0.00
2013-12-12,7.1,1.4,-4.5,4.0,-2.5,-8.0,89,84,76,30.23,29.96,9,2,15,0.00
2013-12-13,9.1,2.0,-10.7,7.0,-1.3,-15.0,89,86,82,30.40,29.86,12,4,21,0.00
2013-12-14,2.7,-6.1,-20.4,-1.0,-11.2,-25.0,86,79,69,30.67,30.34,31,5,33,0.00
2013-12-15,15.6,10.2,2.2,14.0,7.8,-1.0,91,90,86,30.33,29.56,33,11,49,0.00
2013-12-16,7.9,0.2,-10.2,5.0,-2.9,-14.0,89,86,83,30.24,29.67,13,4,18,0.00
2013-12-17,9.5,-2.9,-19.9,7.0,-6.4,-24.0,89,84,80,30.31,30.14,11,3,17,0.00
2013-12-18,18.5,15.5,10.0,17.0,13.5,8.0,93,91,89,30.13,29.93,10,2,15,0.00
2013-12-19,25.9,22.0,17.7,24.0,20.4,16.0,94,93,91,30.08,29.90,6,2,14,0.00
2013-12-20,33.4,29.3,25.2,33.0,28.2,24.0,98,96,94,30.11,29.89,7,1,14,0.00
2013-12-21,45.4,38.6,32.2,45.0,38.1,32.0,98,98,97,29.91,29.79,7,1,11,0.91
2013-12-22,33.3,28.9,26.0,33.0,28.3,25.0,98,97,96,30.00,29.73,11,1,22,0.42
2013-12-23,33.1,29.8,22.2,33.0,29.1,21.0,98,97,94,30.09,29.98,0,0,0,0.00
2013-12-24,21.8,10.0,-0.1,20.0,7.9,-3.0,94,91,88,30.21,30.07,0,0,0,0.00
2013-12-25,7.6,0.8,-6.2,5.0,-2.0,-9.0,90,88,85,30.56,30.23,0,0,0,0.00
2013-12-26,22.7,15.6,7.4,21.0,13.7,5.0,94,92,88,30.48,30.14,0,0,0,0.00
2013-12-27,20.9,18.6,16.7,19.0,16.9,15.0,94,93,92,30.18,30.11,0,0,0,0.00
2013-12-28,30.6,24.9,15.3,30.0,23.7,13.0,97,95,92,30.12,29.96,0,0,0,0.00
2013-12-29,34.7,31.8,30.6,34.0,31.0,30.0,98,97,96,30.00,29.55,8,1,16,0.00
2013-12-30,32.0,12.2,-6.3,32.0,10.0,-9.0,98,91,86,30.16,29.53,9,2,17,0.00
2013-12-31,6.3,-0.2,-6.1,3.0,-3.6,-9.0,90,85,78,30.15,30.04,4,1,10,0.00
2014-1-1,6.1,-1.3,-12.7,4.0,-4.8,-16.0,90,85,81,30.44,30.12,13,4,26,0.00
2014-1-2,0.6,-6.3,-15.2,-3.0,-9.9,-19.0,87,84,80,30.44,30.06,11,2,20,0.00